Home   Weather   Sharjah   Past weeks
Flag for United Arab Emirates

Past Weather in Sharjah, Sharjah, United Arab Emirates — Yesterday and Last 2 Weeks

Now
79 °F

Fog.


Feels Like: 82 °F
Forecast: 92 / 79 °F
Wind: 2 mph from North

Location: Sharjah International Airport

Current Time: Oct 23, 2019 at 9:15:39 am

Latest Report: Oct 23, 2019 at 8:00 am


Visibility: 1 mi

Pressure: 29.89 "Hg

Humidity: 89%

Dew Point: 75 °F

Location of SharjahLocation

Past Weather in Sharjah — Graph

°F

Sharjah Temperature Yesterday

Maximum temperature yesterday: 97 °F (at 1:00 pm)
Minimum temperature yesterday: 73 °F (at 5:00 am)
Average temperature yesterday: 84 °F

High & Low Weather Summary for the Past Weeks

 TemperatureHumidityPressure
High104 °F (Oct 12, 1:00 pm)100% (Oct 19, 5:00 am)30.01 "Hg (Oct 19, 5:00 am)
Low72 °F (Oct 17, 6:00 am)14% (Oct 12, 12:00 pm)29.74 "Hg (Oct 12, 3:00 pm)
Average86 °F65%29.89 "Hg
* Reported Oct 8 7:00 am — Oct 23 7:00 am, Sharjah. Weather by CustomWeather, © 2019

Note: Actual official high and low records may vary slightly from our data, if they occured in-between our weather recording intervals... More about our weather records

Advertising

Sharjah Weather History for the Previous 24 Hours

Scroll right to see more
 ConditionsComfort  
Time TempWeatherWind HumidityBarometerVisibility
7:00 am
Wed, Oct 23
77 °FFog.3 mph94%29.86 "Hg1 mi
6:00 am77 °FFog.5 mph89%29.86 "Hg1 mi
5:00 am79 °FFog.1 mph89%29.83 "Hg1 mi
4:00 am77 °FFog.3 mph94%29.83 "Hg1 mi
3:00 am79 °FFog.2 mph89%29.83 "Hg1 mi
2:00 am79 °FHaze.5 mph94%29.83 "Hg1 mi
1:00 am81 °FHaze.5 mph89%29.86 "Hg1 mi
12:00 am81 °FHaze.3 mph89%29.86 "Hg2 mi
11:00 pm
Tue, Oct 22
82 °FHaze.2 mph84%29.86 "Hg2 mi
10:00 pm84 °FHaze.3 mph79%29.86 "Hg2 mi
9:00 pm86 °FHaze.2 mph79%29.86 "Hg2 mi
8:00 pm86 °FPassing clouds.6 mph75%29.86 "Hg3 mi
7:00 pm86 °FPassing clouds.9 mph75%29.83 "Hg4 mi
6:00 pm88 °FClear.9 mph66%29.83 "Hg4 mi
5:00 pm90 °FClear.13 mph55%29.83 "Hg5 mi
4:00 pm90 °FSunny.14 mph55%29.80 "Hg10 mi
3:00 pm91 °FSunny.12 mph46%29.80 "Hg10 mi
2:00 pm93 °FSunny.12 mph41%29.83 "Hg10 mi
1:00 pm97 °FPassing clouds.3 mph28%29.83 "HgN/A
12:00 pm93 °FPassing clouds.3 mph32%29.86 "HgN/A
11:00 am91 °FPassing clouds.3 mph41%29.89 "HgN/A
10:00 am88 °FClear.5 mph62%29.92 "Hg4 mi
9:00 am84 °FHaze.7 mph70%29.89 "Hg3 mi
Weather by CustomWeather, © 2019

See weather overview